Location: Unspecified
(0.0000°N, 0.0000°E)
Time: 04:26:15
(UTC+00:00)

A-11 Canister half - Pass Details

Date: 19 April 2026
Orbit: 1523 x 1685 km, 47.3° (Epoch: 13 May)

Event Time Altitude Azimuth Distance (km) Brightness Sun altitude
Rises 18:38:47 0° 190° (S) 4,708 11.5 -9.7°
Reaches altitude 10° 18:43:28 10° 170° (S) 3,749 10.8 -10.9°
Maximum altitude 18:49:00 17° 133° (SE) 3,277 10.2 -12.2°
Enters shadow 18:51:47 15° 113° (ESE) 3,430 10.2 -12.9°
Drops below altitude 10° 18:54:35 10° 97° (E) 3,819 - -13.6°
Sets 18:59:20 0° 78° (ENE) 4,836 - -14.8°
